Flag for India Weather past 2 weeks in New Okhla Industrial Development Authority, Uttar Pradesh, India

Now
82 °F

Fog.


Feels Like: 91 °F
Forecast: 74 / 96 °F
Wind: 5 mph from Northwest

Location: New Delhi Palam Airport

Current Time: Sep 16, 2014 at 8:52:14 AM

Latest Report: Sep 16, 2014 at 8:00 AM


Visibility: 2 mi

Pressure: 29.71 "Hg

Humidity: 84%

Dew point: 77 °F

Location of New Okhla Industrial Development AuthorityLocation

Historic Weather in New Okhla Industrial Development Authority — Graph

°F

New Okhla Industrial Development Authority temperature yesterday

Maximum temperature yesterday: 95 °F (at 3:00 PM)
Minimum temperature yesterday: 73 °F (at 1:30 AM)
Average temperature yesterday: 84 °F

Past Weeks' High & Low Weather Summary

 TemperatureHumidityPressure
High97 °F (Sep 7, 4:00 PM)100% (Sep 7, 3:30 AM)29.80 "Hg (Sep 7, 3:30 AM)
Low73 °F (Sep 15, 1:30 AM)49% (Sep 1, 3:00 PM)29.50 "Hg (Sep 5, 3:30 AM)
Average84 °F76%29.66 "Hg
* Reported Sep 1 8:00 AM — Sep 16 7:30 AM, New Okhla Industrial Development Authority, Weather by CustomWeather, © 2014

Note: Actual official high and low records may vary slightly from our data, if they occured in-between our weather recording intervals... More about our weather records

Advertising

New Okhla Industrial Development Authority weather history for previous 24 hours

 ConditionsComfort  
Time TempWeatherWind HumidityBarometerVisibility
7:30 AM
Sep 16
81 °FFog.5 mph89%29.71 "Hg1 mi
7:00 AM81 °FFog.5 mph89%29.71 "Hg1 mi
6:30 AM81 °FFog.5 mph89%29.68 "Hg2 mi
6:00 AM81 °FFog.5 mph84%29.68 "Hg2 mi
5:30 AM81 °FFog.No wind84%29.68 "Hg2 mi
4:30 AM81 °FFog.No wind84%29.68 "Hg2 mi
3:30 AM82 °FFog.3 mph79%29.68 "Hg2 mi
3:00 AM82 °FFog.3 mph79%29.68 "Hg2 mi
2:30 AM82 °FFog.3 mph79%29.68 "Hg2 mi
2:00 AM82 °FFog.No wind79%29.68 "Hg1 mi
1:30 AM82 °FFog.No wind79%29.68 "Hg1 mi
12:30 AM84 °FHaze.No wind74%29.68 "Hg2 mi
12:00 AM84 °FHaze.No wind70%29.68 "Hg2 mi
11:30 PM
Sep 15
84 °FHaze.No wind70%29.68 "Hg2 mi
11:00 PM84 °FHaze.No wind74%29.68 "Hg2 mi
10:30 PM86 °FHaze.5 mph70%29.68 "Hg2 mi
10:00 PM86 °FHaze.5 mph66%29.68 "Hg2 mi
9:30 PM86 °FHaze.6 mph66%29.68 "Hg2 mi
9:00 PM86 °FHaze.6 mph66%29.68 "Hg2 mi
8:30 PM88 °FHaze.6 mph62%29.65 "Hg2 mi
7:30 PM90 °FHaze.6 mph59%29.65 "Hg3 mi
7:00 PM91 °FHaze.7 mph56%29.65 "Hg3 mi
6:30 PM91 °FHaze.9 mph56%29.65 "Hg3 mi
6:00 PM91 °FHaze.9 mph56%29.65 "Hg3 mi
5:30 PM93 °FHaze.10 mph53%29.65 "Hg3 mi
5:00 PM95 °FScattered clouds.10 mph50%29.65 "Hg3 mi
4:30 PM95 °FScattered clouds.12 mph50%29.65 "Hg3 mi
4:00 PM95 °FScattered clouds.10 mph50%29.65 "Hg3 mi
3:30 PM95 °FScattered clouds.10 mph50%29.68 "Hg3 mi
3:00 PM95 °FScattered clouds.12 mph50%29.68 "Hg3 mi
2:30 PM93 °FScattered clouds.12 mph49%29.68 "Hg3 mi
1:30 PM91 °FScattered clouds.10 mph52%29.71 "Hg3 mi
1:00 PM90 °FScattered clouds.8 mph55%29.74 "Hg3 mi
12:30 PM90 °FHaze.10 mph55%29.74 "Hg2 mi
12:00 PM90 °FHaze.10 mph55%29.74 "Hg2 mi
11:30 AM88 °FHaze.9 mph59%29.77 "Hg2 mi
11:00 AM88 °FHaze.9 mph55%29.77 "Hg2 mi
10:30 AM86 °FHaze.8 mph59%29.77 "Hg2 mi
10:00 AM82 °FHaze.7 mph74%29.77 "Hg2 mi
9:30 AM82 °FFog.7 mph74%29.77 "Hg2 mi
9:00 AM81 °FFog.8 mph79%29.77 "Hg2 mi
8:30 AM81 °FFog.7 mph84%29.77 "Hg2 mi
Weather by CustomWeather, © 2014

See weather overviewHow to use our weather pages